1494666000.37,8997,14.56,73280.5,15.33,-3.75,-6.89,0,*70
1494666001.61,8998,14.56,73278.3,15.33,-3.39,-6.23,0,*77
1494666002.83,8999,14.56,73282.0,15.31,-3.39,-5.93,0,*7C
1494666004.04,9000,14.56,73276.0,15.31,-3.15,-5.19,0,*78
1494666005.25,9001,14.56,73276.0,15.33,-2.83,-4.37,0,*78
1494666006.46,9002,14.56,73280.5,15.31,-2.11,-3.23,0,*70
1494666007.7,9003,14.56,73280.0,15.33,-2.07,-2.99,0,*74
1494666008.91,9004,14.56,73278.8,15.31,-2.59,-3.35,0,*7D
1494666010.09,9005,14.56,73278.8,15.27,-1.59,-2.19,0,*77
1494666011.32,9006,14.56,73282.3,15.29,-0.53,-1.01,0,*4B
1494666012.53,9007,14.56,73278.8,15.27,-0.73,-1.09,0,*4E
1494666013.7,9008,14.56,73280.0,15.27,0.01,-0.33,0,*61
1494666014.92,9009,14.56,73278.3,15.27,0.79,0.51,0,*76
1494666016.17,9010,14.56,73282.0,15.25,1.47,1.25,0,*72
1494666017.4,9011,14.56,73278.8,15.25,1.93,1.75,0,*7F
1494666018.63,9012,14.56,73280.5,15.23,1.97,1.71,0,*7A
1494666019.85,9013,14.56,73280.5,15.23,2.77,2.43,0,*74
1494666021.09,9014,14.56,73282.0,15.25,2.91,2.17,0,*7C
1494666022.31,9015,14.56,73282.0,15.25,2.91,1.97,0,*76
1494666023.54,9016,14.56,73276.3,15.25,2.65,1.63,0,*75
1494666024.79,9017,14.56,73280.8,15.25,3.03,1.97,0,*7E
1494666026.03,9018,14.56,73276.3,15.25,1.43,0.17,0,*4E
1494666027.23,9019,14.56,73282.3,15.23,0.51,-0.45,0,*51
1494666028.43,9020,14.56,73282.3,15.23,0.97,0.75,0,*7F
1494666029.69,9021,14.56,73278.8,15.21,1.33,1.33,0,*70
1494666030.94,9022,14.56,73280.3,15.21,1.89,1.89,0,*73
1494666032.14,9023,14.56,73278.3,15.17,1.01,1.05,0,*73
1494666033.39,9024,14.56,73278.5,15.21,0.83,0.87,0,*71
1494666034.63,9025,14.56,73280.0,15.21,1.67,1.59,0,*79
1494666035.86,9026,14.56,73282.5,15.17,2.01,1.79,0,*7E
1494666037.11,9027,14.56,73282.5,15.17,1.47,1.13,0,*72
1494666038.36,9028,14.56,73282.3,15.15,2.09,1.63,0,*71
1494666039.58,9029,14.56,73280.0,15.13,2.17,1.59,0,*70
1494666040.83,9030,14.56,73282.0,15.15,2.47,1.47,0,*74
1494666042.02,9031,14.56,73280.3,15.13,2.77,1.83,0,*78
1494666043.24,9032,14.56,73282.5,15.13,2.69,1.37,0,*7B
1494666044.45,9033,14.56,73282.3,15.11,1.83,-0.11,0,*67
1494666045.68,9034,14.56,73284.0,15.09,2.17,0.21,0,*49
1494666046.85,9035,14.56,73280.3,15.09,1.83,-0.07,0,*5F
1494666048.05,9036,14.56,73284.8,15.09,1.89,-0.03,0,*52
1494666049.27,9037,14.56,73282.8,15.07,1.43,-0.53,0,*6E
1494666050.47,9038,14.56,73282.3,15.05,1.01,-0.89,0,*62
1494666051.67,9039,14.56,73278.5,15.05,0.59,-1.55,0,*6F
1494666052.88,9040,14.56,73284.0,15.05,-0.69,-2.71,0,*4A
1494666054.09,9041,14.56,73282.5,15.03,-0.33,-2.19,0,*4C
1494666055.31,9042,14.56,73282.3,15.03,-0.11,-1.75,0,*46
1494666056.52,9043,14.56,73280.5,15.03,-2.43,-4.17,0,*73
1494666057.74,9044,14.56,73282.3,15.01,-3.27,-4.93,0,*79
1494666058.98,9045,14.56,73286.5,14.95,-1.39,-2.91,0,*7D
1494666060.24,9046,14.56,73282.3,14.95,-1.09,-2.59,0,*79
1494666061.47,9047,14.56,73282.5,14.95,0.95,-0.53,0,*59
1494666062.69,9048,14.56,73284.3,14.95,0.79,-0.65,0,*51
1494666063.91,9049,14.56,73286.5,14.95,-0.19,-1.21,0,*4A
1494666065.14,9050,14.56,73284.8,14.95,-0.29,-1.01,0,*43
1494666066.38,9051,14.56,73282.0,14.99,0.25,-0.23,0,*5E
1494666067.62,9052,14.56,73282.5,14.95,0.51,0.17,0,*78
1494666068.85,9053,14.56,73286.0,14.95,1.25,1.01,0,*7D
1494666070.1,9054,14.56,73280.5,14.99,1.55,1.33,0,*70
1494666071.36,9055,14.56,73284.3,14.99,1.09,0.87,0,*46
1494666072.58,9056,14.56,73284.0,15.03,2.35,2.21,0,*75
1494666073.81,9057,14.56,73286.5,15.03,1.93,1.75,0,*79
1494666075.05,9058,14.56,73282.0,15.05,1.37,1.21,0,*7F
1494666076.28,9059,14.56,73280.0,15.07,1.51,1.75,0,*7D
1494666077.45,9060,14.56,73284.8,15.09,1.83,2.35,0,*71
1494666078.65,9061,14.56,73286.8,15.13,2.47,3.29,0,*7C
1494666079.88,9062,14.56,73284.5,15.15,1.67,2.61,0,*75
1494666081.11,9063,14.56,73280.8,15.21,3.23,4.27,0,*75
1494666082.37,9064,14.56,73280.3,15.25,3.75,4.79,0,*7E
1494666083.57,9065,14.56,73280.8,15.31,3.81,4.63,0,*7A
1494666084.75,9066,14.56,73284.0,15.31,3.81,4.57,0,*7E
1494666085.98,9067,14.56,73284.3,15.35,3.97,4.97,0,*70
1494666087.18,9068,14.56,73284.8,15.39,3.19,4.85,0,*76
1494666088.42,9069,14.56,73280.5,15.45,2.73,4.59,0,*70
1494666089.65,9070,14.56,73284.3,15.47,1.85,3.75,0,*79
1494666090.9,9071,14.56,73284.3,15.45,1.89,3.15,0,*70
1494666092.1,9072,14.56,73284.5,15.47,1.59,2.65,0,*7A
1494666093.34,9073,14.56,73284.5,15.45,1.51,2.21,0,*71
1494666094.54,9074,14.56,73286.8,15.43,1.43,1.79,0,*7D
1494666095.77,9075,14.56,73280.3,15.43,1.33,1.43,0,*72
1494666096.97,9076,14.56,73286.5,15.43,1.21,0.97,0,*4A
1494666098.2,9077,14.56,73286.5,15.39,1.63,1.09,0,*76
1494666099.44,9078,14.56,73282.8,15.37,2.25,1.51,0,*7B
1494666100.63,9079,14.56,73282.0,15.35,2.25,1.41,0,*79
1494666101.88,9080,14.56,73284.3,15.33,2.09,1.21,0,*71
1494666103.09,9081,14.56,73284.0,15.31,2.31,1.33,0,*7A
1494666104.31,9082,14.56,73280.5,15.31,2.21,1.21,0,*7B
1494666105.51,9083,14.56,73282.8,15.27,2.31,1.29,0,*74
1494666106.73,9084,14.56,73284.5,15.27,2.21,1.13,0,*7B
1494666107.96,9085,14.56,73284.5,15.23,1.33,0.17,0,*4B
1494666109.22,9086,14.56,73284.8,15.17,1.37,0.17,0,*4B
1494666110.44,9087,14.56,73284.0,15.17,1.47,0.43,0,*4C
1494666111.65,9088,14.56,73284.5,15.13,1.59,0.13,0,*4D
1494666112.89,9089,14.56,73284.8,15.11,0.41,-0.85,0,*54
1494666114.11,9090,14.56,73286.3,15.07,0.21,-0.81,0,*59
1494666115.35,9091,14.56,73286.5,15.03,-0.11,-1.13,0,*48
1494666116.57,9092,14.56,73284.0,14.99,-0.29,-1.13,0,*42
1494666117.81,9093,14.56,73282.3,14.95,0.83,0.17,0,*7A
1494666119.03,9094,14.56,73282.0,14.95,0.59,0.05,0,*49
1494666120.25,9095,14.56,73286.0,14.91,0.37,-0.57,0,*5E
1494666121.47,9096,14.56,73282.8,14.91,0.63,-0.37,0,*5A
1494666122.66,9097,14.56,73284.5,14.89,0.25,-0.73,0,*50
1494666123.88,9098,14.56,73280.8,14.87,0.09,-1.13,0,*58
1494666125.09,9099,14.56,73284.5,14.83,-1.79,-3.11,0,*76
1494666126.35,9100,14.56,73284.5,14.79,-2.03,-3.59,0,*70
1494666127.62,9101,14.56,73286.8,14.75,-3.71,-5.65,0,*70
1494666128.83,9102,14.56,73282.5,14.69,-2.51,-4.41,0,*7A
1494666130.08,9103,14.56,73282.5,14.63,-1.83,-4.21,0,*7B
1494666131.29,9104,14.56,73282.3,14.61,-1.43,-3.83,0,*7D
1494666132.51,9105,14.56,73282.8,14.57,-2.31,-4.69,0,*7C
1494666133.69,9106,14.56,73282.3,14.57,-1.67,-4.33,0,*70
1494666134.89,9107,14.56,73280.5,14.53,-1.79,-4.57,0,*78
1494666136.08,9108,14.56,73284.5,14.53,-1.21,-4.09,0,*71
1494666137.29,9109,14.56,73284.0,14.47,-1.51,-4.69,0,*74
1494666138.53,9110,14.63,73288.3,14.43,-1.87,-5.03,0,*7E
1494666139.77,9111,14.56,73282.0,14.43,-1.43,-4.81,0,*7C
1494666140.97,9112,14.63,73288.5,14.41,-0.61,-4.13,0,*47
1494666142.18,9113,14.63,73288.5,14.41,-0.45,-4.13,0,*40
1494666143.39,9114,14.56,73286.3,14.41,-0.33,-4.13,0,*46
1494666144.65,9115,14.56,73286.3,14.41,-1.35,-5.31,0,*71
1494666145.89,9116,14.63,73288.3,14.39,-0.85,-5.27,0,*40
1494666147.07,9117,14.56,73284.3,14.39,-1.59,-6.73,0,*73
1494666148.3,9118,14.56,73284.8,14.37,-1.59,-6.93,0,*7C
1494666149.53,9119,14.56,73286.8,14.37,-1.71,-7.15,0,*78
1494666150.78,9120,14.56,73282.0,14.37,-1.39,-6.51,0,*7F
1494666151.98,9121,14.63,73284.5,14.35,-0.97,-6.13,0,*4F
1494666153.22,9122,14.56,73284.0,14.37,-1.59,-7.01,0,*7F
1494666154.46,9123,14.56,73284.3,14.37,-1.47,-6.77,0,*71
1494666155.7,9124,14.56,73288.0,14.37,-1.59,-7.27,0,*7D
1494666156.94,9125,14.56,73286.3,14.37,-1.59,-7.57,0,*7B
1494666158.19,9126,14.56,73284.3,14.41,-1.95,-8.03,0,*77
1494666159.43,9127,14.56,73286.3,14.41,-3.39,-9.53,0,*76
1494666160.7,9128,14.63,73288.5,14.41,-3.59,-9.45,0,*78
1494666161.91,9129,14.56,73286.3,14.41,-3.07,-8.85,0,*7F
1494666163.11,9130,14.56,73284.8,14.43,-4.13,-10.01,0,*42
1494666164.33,9131,14.56,73286.8,14.43,-4.25,-9.61,0,*78
1494666165.56,9132,14.56,73284.3,14.45,-4.41,-9.57,0,*7A
1494666166.79,9133,14.56,73284.5,14.45,-4.85,-9.97,0,*7F
1494666168.03,9134,14.56,73284.5,14.45,-5.43,-10.41,0,*40
1494666169.27,9135,14.63,73286.8,14.47,-5.89,-10.67,0,*41
1494666170.53,9136,14.56,73282.8,14.49,-5.69,-10.15,0,*47
1494666171.73,9137,14.56,73284.8,14.49,-4.53,-8.37,0,*77
1494666172.97,9138,14.63,73286.3,14.49,-5.31,-8.59,0,*75
1494666174.16,9139,14.56,73282.0,14.53,-5.47,-8.45,0,*73
1494666175.39,9140,14.56,73282.0,14.55,-5.61,-8.55,0,*7E
1494666176.62,9141,14.63,73286.0,14.55,-5.89,-8.59,0,*75
1494666177.86,9142,14.63,73286.3,14.55,-5.61,-7.87,0,*7C
1494666179.07,9143,14.56,73284.8,14.55,-4.61,-6.73,0,*76
1494666180.31,9144,14.56,73284.3,14.57,-5.11,-6.93,0,*7B
1494666181.52,9145,14.63,73284.3,14.57,-6.43,-8.11,0,*7A
1494666182.76,9146,14.63,73284.0,14.59,-6.47,-7.65,0,*7F
1494666184.0,9147,14.63,73284.3,14.57,-5.19,-6.23,0,*7B
1494666185.2,9148,14.56,73284.3,14.57,-4.73,-5.43,0,*7C
1494666186.39,9149,14.63,73286.0,14.57,-4.65,-5.35,0,*7B
1494666187.59,9150,14.56,73284.0,14.61,-3.75,-4.29,0,*7C
1494666188.83,9151,14.63,73288.0,14.63,-3.55,-4.25,0,*71
1494666190.05,9152,14.63,73286.0,14.63,-3.83,-4.49,0,*73
1494666191.27,9153,14.56,73284.3,14.61,-3.39,-4.01,0,*7D
1494666192.49,9154,14.63,73286.0,14.63,-2.91,-3.47,0,*7E
1494666193.72,9155,14.56,73280.3,14.63,-2.67,-3.11,0,*75
1494666194.96,9156,14.63,73286.3,14.63,-3.31,-3.43,0,*73
1494666196.15,9157,14.56,73284.3,14.65,-2.95,-2.95,0,*71
1494666197.36,9158,14.56,73280.0,14.65,-2.75,-2.87,0,*73
1494666198.58,9159,14.63,73286.3,14.65,-2.43,-2.51,0,*7C
1494666199.78,9160,14.56,73282.8,14.67,-1.63,-1.75,0,*70
1494666200.99,9161,14.63,73286.5,14.65,-1.75,-2.11,0,*75
1494666202.22,9162,14.63,73284.5,14.67,-1.55,-1.87,0,*7A
1494666203.43,9163,14.56,73284.8,14.67,-1.51,-1.79,0,*7E
1494666204.66,9164,14.63,73286.3,14.67,-1.35,-1.79,0,*7B
1494666205.85,9165,14.56,73284.0,14.69,-1.75,-2.15,0,*79
1494666207.09,9166,14.63,73284.0,14.67,-1.99,-2.43,0,*75
1494666208.33,9167,14.56,73284.5,14.67,-1.29,-1.91,0,*73
1494666209.59,9168,14.56,73284.0,14.67,-1.05,-1.43,0,*7D
1494666210.82,9169,14.63,73284.3,14.67,-0.77,-1.39,0,*45
1494666211.99,9170,14.56,73284.0,14.65,0.05,-0.69,0,*63
1494666213.18,9171,14.63,73284.0,14.65,0.37,-0.15,0,*58
1494666214.4,9172,14.56,73282.0,14.67,0.25,-0.19,0,*56
1494666215.59,9173,14.56,73286.5,14.65,0.33,-0.15,0,*5E
1494666216.76,9174,14.63,73284.3,14.65,-0.07,-0.57,0,*45
1494666217.96,9175,14.63,73284.8,14.65,0.21,-0.19,0,*57
1494666219.14,9176,14.56,73282.5,14.65,0.37,-0.07,0,*6C
1494666220.36,9177,14.63,73284.0,14.69,0.63,0.37,0,*7E
1494666221.57,9178,14.63,73286.3,14.65,0.47,0.17,0,*79
1494666222.77,9179,14.56,73280.8,14.63,1.41,1.05,0,*7B
1494666224.0,9180,14.56,73282.8,14.63,1.13,1.01,0,*7E
1494666225.24,9181,14.56,73284.8,14.63,0.51,0.21,0,*7B
1494666226.46,9182,14.56,73282.5,14.63,1.79,1.71,0,*77
1494666227.68,9183,14.63,73284.0,14.63,1.41,1.29,0,*70
1494666228.9,9184,14.63,73286.8,14.61,1.59,1.67,0,*76
1494666230.11,9185,14.63,73286.3,14.63,1.75,1.75,0,*78
1494666231.35,9186,14.63,73284.8,14.63,1.85,1.89,0,*77
1494666232.6,9187,14.63,73284.5,14.63,2.13,2.21,0,*7B
1494666233.84,9188,14.63,73286.3,14.63,1.63,1.59,0,*7C
1494666235.04,9189,14.56,73284.8,14.63,1.05,1.05,0,*74
1494666236.29,9190,14.63,73286.3,14.63,0.91,0.71,0,*72
1494666237.55,9191,14.63,73286.3,14.63,1.37,1.25,0,*7E
1494666238.77,9192,14.63,73288.5,14.61,0.29,-0.23,0,*5B
1494666240.0,9193,14.56,73282.3,14.59,0.63,0.37,0,*77
1494666241.23,9194,14.56,73282.5,14.57,1.63,1.21,0,*79
1494666242.49,9195,14.63,73288.0,14.59,2.39,2.05,0,*7F
1494666243.68,9196,14.63,73284.8,14.57,1.43,0.97,0,*45
1494666244.91,9197,14.56,73286.8,14.57,1.55,1.21,0,*7F
1494666246.1,9198,14.63,73284.8,14.57,0.59,-0.03,0,*61
1494666247.34,9199,14.63,73284.3,14.55,0.17,-0.23,0,*5A
1494666248.56,9200,14.63,73286.3,14.55,0.33,-0.19,0,*56
1494666249.77,9201,14.63,73286.5,14.49,0.59,-0.03,0,*6D
1494666250.95,9202,14.63,73288.0,14.47,-0.15,-0.77,0,*76
1494666252.17,9203,14.63,73284.0,14.43,0.71,0.21,0,*72
1494666253.39,9204,14.63,73286.0,14.43,1.47,0.91,0,*4A
1494666254.59,9205,14.56,73284.8,14.43,2.61,2.09,0,*7F
1494666255.81,9206,14.63,73286.5,14.43,2.85,2.25,0,*78
1494666256.99,9207,14.63,73284.8,14.43,2.27,1.79,0,*7B
1494666258.2,9208,14.63,73286.5,14.43,2.25,1.89,0,*79
1494666259.42,9209,14.63,73286.3,14.43,0.51,-0.23,0,*55
1494666260.64,9210,14.63,73288.3,14.39,0.91,0.67,0,*71
1494666261.85,9211,14.63,73286.8,14.39,0.63,0.25,0,*7B
1494666263.05,9212,14.63,73284.3,14.35,-0.65,-0.97,0,*7B
1494666264.24,9213,14.63,73284.0,14.31,-1.33,-1.55,0,*73
1494666265.47,9214,14.63,73286.3,14.25,-0.27,-0.37,0,*70
1494666266.68,9215,14.63,73284.5,14.23,0.29,0.17,0,*7B
1494666267.88,9216,14.63,73286.5,14.23,-0.69,-0.93,0,*70
1494666269.1,9217,14.63,73284.3,14.19,-0.73,-0.93,0,*73
1494666270.29,9218,14.63,73286.8,14.17,0.25,0.09,0,*42
1494666271.47,9219,14.63,73288.0,14.13,0.17,0.05,0,*4A
1494666272.7,9220,14.63,73282.3,14.13,0.91,0.91,0,*73
1494666273.92,9221,14.63,73284.3,14.09,1.09,1.09,0,*79
1494666275.14,9222,14.63,73286.8,14.09,1.59,1.59,0,*7A
1494666276.3,9223,14.63,73286.3,14.09,-0.07,0.05,0,*54
1494666277.53,9224,14.63,73286.5,14.09,-0.85,-1.05,0,*45
1494666278.73,9225,14.63,73284.8,14.03,-0.49,-0.81,0,*73
1494666279.91,9226,14.63,73282.5,13.97,-0.45,-0.73,0,*7B
1494666281.15,9227,14.63,73284.8,13.95,0.51,0.37,0,*7D
1494666282.39,9228,14.63,73282.8,13.95,1.59,1.47,0,*7D
1494666283.63,9229,14.63,73282.8,13.93,1.29,1.09,0,*77
1494666284.88,9230,14.63,73282.3,13.91,1.97,1.97,0,*7F
1494666286.14,9231,14.63,73280.0,13.91,2.51,2.51,0,*7E
1494666287.37,9232,14.63,73280.8,13.93,2.89,2.73,0,*7A
1494666288.57,9233,14.63,73282.3,13.93,2.61,2.55,0,*79
1494666289.79,9234,14.63,73282.0,13.93,2.25,1.89,0,*7C
1494666291.03,9235,14.63,73286.8,13.91,2.21,1.97,0,*74
1494666292.25,9236,14.63,73280.8,13.91,2.31,1.89,0,*79
1494666293.48,9237,14.63,73280.3,13.91,1.51,1.01,0,*7D
1494666294.68,9238,14.63,73284.3,13.89,1.89,1.75,0,*7D
1494666295.88,9239,14.63,73282.8,13.87,2.91,2.55,0,*79
1494666297.08,9240,14.63,73280.0,13.87,3.29,2.89,0,*74
1494666298.3,9241,14.63,73280.8,13.87,2.55,2.21,0,*7D
1494666299.56,9242,14.63,73286.0,13.85,2.51,2.05,0,*7E
1494666300.75,9243,14.63,73284.5,13.85,1.83,1.41,0,*70
1494666302.0,9244,14.63,73282.8,13.81,1.89,1.55,0,*7C
1494666303.22,9245,14.63,73284.8,13.81,1.79,1.47,0,*71
1494666304.47,9246,14.63,73286.3,13.77,1.63,1.37,0,*77
1494666305.73,9247,14.63,73284.3,13.77,1.97,1.63,0,*7C
1494666306.96,9248,14.63,73284.3,13.75,1.63,1.25,0,*78
1494666308.18,9249,14.63,73282.3,13.75,1.93,1.51,0,*75
1494666309.45,9250,14.63,73282.8,13.73,1.29,0.75,0,*4D
1494666310.67,9251,14.63,73286.0,13.71,1.17,0.67,0,*40
1494666311.9,9252,14.63,73284.0,13.67,1.13,0.79,0,*4F
1494666313.13,9253,14.63,73286.0,13.65,0.97,0.63,0,*7A
1494666314.38,9254,14.63,73284.3,13.65,1.71,1.37,0,*74
1494666315.61,9255,14.63,73286.5,13.63,2.43,2.05,0,*73
1494666316.82,9256,14.63,73284.8,13.63,2.89,2.61,0,*74
1494666318.02,9257,14.63,73286.8,13.59,2.59,2.27,0,*73
1494666319.25,9258,14.63,73284.5,13.63,1.71,1.33,0,*7A
1494666320.48,9259,14.63,73286.8,13.63,1.29,0.87,0,*48
1494666321.7,9260,14.63,73286.0,13.59,0.67,0.21,0,*7C
1494666322.92,9261,14.63,73284.3,13.57,0.97,0.51,0,*7B
1494666324.16,9262,14.63,73284.0,13.55,0.75,0.29,0,*79
1494666325.32,9263,14.63,73286.0,13.53,0.43,0.09,0,*49
1494666326.56,9264,14.63,73288.8,13.51,1.33,0.95,0,*4F
1494666327.81,9265,14.63,73288.8,13.51,1.13,0.71,0,*46
1494666329.0,9266,14.63,73286.8,13.49,1.79,1.43,0,*70
1494666330.26,9267,14.63,73286.3,13.47,2.43,2.13,0,*73
1494666331.51,9268,14.63,73288.0,13.47,2.73,2.43,0,*7A
1494666332.73,9269,14.63,73286.0,13.49,2.85,2.59,0,*77
1494666333.95,9270,14.63,73286.8,13.49,2.85,2.59,0,*7F
1494666335.18,9271,14.63,73286.5,13.53,2.73,2.51,0,*74
1494666336.42,9272,14.63,73286.8,13.51,2.77,2.59,0,*79
1494666337.64,9273,14.63,73290.3,13.51,2.59,2.27,0,*7D
1494666338.89,9274,14.63,73286.0,13.51,2.25,2.01,0,*75
1494666340.09,9275,14.63,73286.3,13.53,2.61,2.43,0,*70
1494666341.33,9276,14.63,73288.5,13.51,2.77,2.73,0,*75
1494666342.58,9277,14.63,73284.8,13.51,2.13,2.05,0,*77
1494666343.76,9278,14.63,73284.5,13.53,2.61,2.61,0,*7D
1494666345.01,9279,14.63,73280.8,13.51,2.51,2.59,0,*76
1494666346.23,9280,14.63,73286.8,13.53,1.47,1.47,0,*7A
1494666347.47,9281,14.63,73286.5,13.53,1.33,1.37,0,*7F
1494666348.68,9282,14.63,73286.8,13.51,1.41,1.43,0,*78
1494666349.87,9283,14.63,73284.3,13.53,0.37,0.43,0,*7A
1494666351.05,9284,14.63,73286.5,13.47,0.01,0.01,0,*7B
1494666352.3,9285,14.63,73288.0,13.47,0.91,1.09,0,*4A
1494666353.5,9286,14.63,73286.0,13.45,1.67,1.83,0,*71
1494666354.72,9287,14.63,73284.5,13.45,1.09,1.25,0,*74
1494666355.96,9288,14.63,73284.8,13.45,1.21,1.33,0,*76
1494666357.16,9289,14.63,73284.5,13.43,1.05,1.05,0,*72
1494666358.37,9290,14.63,73284.0,13.41,0.83,0.83,0,*78
1494666359.6,9291,14.63,73286.5,13.41,1.43,1.55,0,*7E
1494666360.82,9292,14.63,73282.8,13.41,1.43,1.55,0,*7D
1494666362.05,9293,14.63,73288.3,13.37,1.17,1.17,0,*7A
1494666363.27,9294,14.63,73284.8,13.41,1.55,1.67,0,*7D
1494666364.47,9295,14.63,73284.0,13.37,1.41,1.51,0,*7D
1494666365.69,9296,14.63,73286.0,13.37,1.47,1.63,0,*79
1494666366.92,9297,14.63,73284.8,13.37,1.85,2.13,0,*72
1494666368.15,9298,14.63,73286.5,13.41,1.09,1.21,0,*7A
1494666369.37,9299,14.63,73286.0,13.37,1.71,1.89,0,*77
1494666370.57,9300,14.63,73284.5,13.37,2.09,2.35,0,*7E
1494666371.79,9301,14.63,73286.0,13.37,1.51,1.63,0,*71
1494666373.0,9302,14.63,73280.3,13.35,0.79,1.01,0,*4F
1494666374.21,9303,14.63,73290.3,13.35,0.75,0.97,0,*7C
1494666375.46,9304,14.63,73286.0,13.35,1.37,1.47,0,*70
1494666376.69,9305,14.63,73286.0,13.33,2.17,2.43,0,*71
1494666377.89,9306,14.63,73284.5,13.33,2.31,2.51,0,*75
1494666379.14,9307,14.63,73284.3,13.35,1.97,2.25,0,*7E
1494666380.34,9308,14.63,73284.8,13.37,1.29,1.41,0,*77
1494666381.54,9309,14.63,73280.8,13.37,1.01,1.25,0,*7E
1494666382.73,9310,14.63,73280.5,13.37,2.09,2.31,0,*7B
1494666383.91,9311,14.63,73280.5,13.37,2.61,2.91,0,*7E
1494666385.13,9312,14.63,73280.0,13.37,2.85,3.03,0,*7D
1494666386.35,9313,14.63,73282.3,13.37,2.85,3.15,0,*7B
1494666387.55,9314,14.63,73280.0,13.41,2.27,2.47,0,*73
1494666388.78,9315,14.63,73284.8,13.41,1.89,2.13,0,*74
1494666390.0,9316,14.63,73284.0,13.41,1.63,1.89,0,*73
1494666391.23,9317,14.63,73282.3,13.37,1.85,2.01,0,*78
1494666392.42,9318,14.63,73282.0,13.41,1.75,1.89,0,*7A
1494666393.65,9319,14.63,73280.8,13.37,1.85,2.01,0,*76
1494666394.85,9320,14.63,73286.0,13.41,2.17,2.27,0,*71
1494666396.08,9321,14.63,73284.5,13.37,1.47,1.37,0,*75
1494666397.29,9322,14.63,73286.5,13.41,1.89,1.89,0,*70
1494666398.49,9323,14.63,73284.0,13.37,1.71,1.75,0,*74
1494666399.72,9324,14.63,73284.0,13.41,1.55,1.55,0,*76
1494666400.93,9325,14.63,73286.3,13.37,0.33,0.33,0,*76
1494666402.13,9326,14.63,73284.3,13.37,0.33,0.17,0,*73
1494666403.33,9327,14.63,73282.8,13.35,-0.45,-0.73,0,*73
1494666404.53,9328,14.63,73284.3,13.31,-0.61,-0.65,0,*79
1494666405.75,9329,14.63,73282.8,13.27,-0.81,-0.97,0,*7C
1494666406.94,9330,14.63,73286.3,13.25,-1.21,-1.33,0,*72
1494666408.21,9331,14.63,73282.0,13.21,-1.01,-1.05,0,*70
1494666409.38,9332,14.63,73284.0,13.19,-0.29,-0.29,0,*7C
1494666410.55,9333,14.63,73284.8,13.19,-0.49,-0.49,0,*7D
1494666411.8,9334,14.63,73282.0,13.17,-0.85,-0.93,0,*73
1494666412.98,9335,14.63,73280.5,13.11,-1.25,-1.25,0,*73
1494666414.17,9336,14.63,73284.5,13.07,-2.15,-2.19,0,*7B
1494666415.36,9337,14.63,73284.8,13.03,-2.23,-2.31,0,*71
1494666416.59,9338,14.63,73286.0,12.99,-2.63,-2.99,0,*7A
1494666417.78,9339,14.63,73280.0,12.95,-3.83,-3.91,0,*71
1494666418.97,9340,14.63,73280.0,12.89,-2.99,-3.23,0,*71
1494666420.2,9341,14.63,73282.0,12.85,-2.67,-2.67,0,*7C
1494666421.41,9342,14.63,73280.8,12.85,-1.43,-1.55,0,*78
1494666422.63,9343,14.63,73284.3,12.81,-1.29,-1.35,0,*77
1494666423.84,9344,14.63,73280.0,12.77,-1.67,-1.47,0,*76
1494666425.11,9345,14.63,73284.5,12.75,-2.51,-2.51,0,*77
1494666426.33,9346,14.63,73280.3,12.73,-1.17,-1.05,0,*71
1494666427.54,9347,14.63,73280.5,12.73,0.41,0.41,0,*73
1494666428.77,9348,14.63,73286.8,12.73,0.91,1.13,0,*47
1494666429.98,9349,14.63,73284.5,12.73,0.17,0.17,0,*7D
1494666431.19,9350,14.63,73286.8,12.73,0.33,0.41,0,*70
1494666432.43,9351,14.63,73282.3,12.75,0.55,0.47,0,*71
1494666433.62,9352,14.63,73284.5,12.73,-0.41,-0.33,0,*72
1494666434.83,9353,14.63,73280.5,12.73,-0.19,-0.23,0,*7F
1494666436.03,9354,14.63,73282.3,12.69,-0.11,-0.23,0,*7B
1494666437.21,9355,14.63,73284.0,12.69,-0.45,-0.45,0,*7B
1494666438.42,9356,14.63,73286.8,12.67,-0.37,-0.37,0,*76
1494666439.67,9357,14.63,73284.3,12.67,0.51,0.59,0,*7F
1494666440.92,9358,14.63,73282.5,12.67,0.83,0.87,0,*7C
1494666442.1,9359,14.63,73280.3,12.67,0.01,0.01,0,*79
1494666443.35,9360,14.63,73280.8,12.67,0.71,0.87,0,*7A
1494666444.58,9361,14.63,73280.0,12.67,0.41,0.41,0,*72
1494666445.83,9362,14.63,73284.8,12.67,0.71,0.75,0,*75
1494666447.08,9363,14.63,73282.0,12.67,0.95,0.87,0,*73
1494666448.33,9364,14.63,73282.8,12.67,1.25,1.25,0,*77
1494666449.57,9365,14.63,73282.5,12.67,0.29,0.25,0,*7A
1494666450.76,9366,14.63,73282.3,12.65,-0.53,-0.57,0,*73
1494666451.99,9367,14.63,73282.5,12.63,-1.09,-1.17,0,*7F
1494666453.22,9368,14.63,73280.5,12.61,-0.97,-0.93,0,*79
1494666454.4,9369,14.63,73278.3,12.59,0.01,0.17,0,*40
1494666455.6,9370,14.63,73278.3,12.59,1.01,1.09,0,*77
1494666456.79,9371,14.63,73276.3,12.59,0.83,0.97,0,*7B
1494666457.95,9372,14.63,73278.3,12.59,0.97,0.97,0,*7D
1494666459.11,9373,14.63,73282.3,12.59,0.09,0.01,0,*74
1494666460.29,9374,14.63,73282.0,12.61,-0.33,-0.53,0,*76
1494666461.48,9375,14.63,73282.5,12.59,-0.61,-0.89,0,*7C
1494666462.69,9376,14.63,73286.0,12.55,-0.89,-1.17,0,*43
1494666463.91,9377,14.63,73286.3,12.53,-0.73,-0.97,0,*78
1494666465.15,9378,14.63,73280.5,12.51,-1.05,-1.09,0,*73
1494666466.33,9379,14.63,73282.3,12.51,-0.33,-0.53,0,*78
1494666467.56,9380,14.63,73282.0,12.49,-0.69,-0.85,0,*73
1494666468.82,9381,14.63,73282.5,12.45,-1.01,-1.13,0,*7F
1494666470.03,9382,14.63,73286.5,12.49,0.13,-0.03,0,*6F
1494666471.28,9383,14.63,73282.8,12.45,-1.05,-1.25,0,*7C
1494666472.47,9384,14.63,73282.5,12.43,-0.77,-0.93,0,*75
1494666473.66,9385,14.63,73282.3,12.43,-1.25,-1.29,0,*72
1494666474.88,9386,14.63,73280.8,12.41,-1.29,-1.51,0,*70
1494666476.1,9387,14.63,73280.0,12.39,-1.71,-1.87,0,*78
1494666477.34,9388,14.63,73282.3,12.37,-1.25,-1.35,0,*71
1494666478.56,9389,14.63,73282.3,12.35,-1.39,-1.71,0,*7F
1494666479.8,9390,14.63,73282.0,12.33,-1.05,-1.33,0,*78
1494666481.04,9391,14.63,73280.5,12.33,-1.95,-2.15,0,*77
1494666482.29,9392,14.63,73284.5,12.29,-2.31,-2.55,0,*76
1494666483.47,9393,14.63,73280.8,12.23,-3.03,-3.39,0,*76
1494666484.71,9394,14.63,73286.5,12.21,-2.51,-2.95,0,*72
1494666485.91,9395,14.63,73276.8,12.19,-3.79,-4.29,0,*72
1494666487.1,9396,14.63,73282.0,12.15,-3.27,-3.79,0,*74
1494666488.3,9397,14.63,73280.5,12.11,-4.17,-4.61,0,*7B
1494666489.5,9398,14.63,73280.5,12.07,-3.11,-3.43,0,*75
1494666490.68,9399,14.63,73282.5,12.07,-2.87,-3.23,0,*7C
1494666491.89,9400,14.63,73278.3,11.99,-3.51,-4.17,0,*75
1494666493.13,9401,14.63,73278.8,11.95,-5.43,-5.81,0,*73
1494666494.36,9402,14.63,73278.8,11.91,-4.41,-4.85,0,*72
1494666495.58,9403,14.63,73282.0,11.87,-3.79,-4.33,0,*75
1494666496.78,9404,14.63,73282.5,11.85,-4.05,-4.53,0,*7A
1494666498.01,9405,14.63,73280.8,11.79,-3.03,-3.55,0,*78
1494666499.24,9406,14.63,73282.5,11.75,-3.19,-3.67,0,*7D
1494666500.48,9407,14.63,73282.8,11.71,-3.11,-3.63,0,*74
1494666501.72,9408,14.63,73276.8,11.71,-2.47,-2.87,0,*72
1494666502.94,9409,14.63,73278.5,11.71,-2.87,-3.31,0,*73
1494666504.17,9410,14.63,73278.0,11.67,-4.73,-5.47,0,*76
1494666505.39,9411,14.63,73280.5,11.63,-4.25,-4.85,0,*7F
1494666506.66,9412,14.63,73278.0,11.61,-1.35,-1.99,0,*72
1494666507.91,9413,14.63,73276.8,11.61,-2.47,-2.99,0,*76
1494666509.1,9414,14.63,73282.0,11.59,-3.11,-3.75,0,*7B
1494666510.31,9415,14.63,73280.5,11.57,-2.19,-2.95,0,*72
1494666511.55,9416,14.63,73280.8,11.57,-1.67,-2.51,0,*73
1494666512.78,9417,14.63,73282.5,11.53,-2.55,-3.31,0,*73
1494666513.97,9418,14.63,73280.3,11.51,-2.35,-3.11,0,*7A
1494666515.16,9419,14.63,73280.8,11.51,-2.35,-2.95,0,*76
1494666516.38,9420,14.63,73286.3,11.49,-3.11,-4.13,0,*7A
1494666517.56,9421,14.63,73280.0,11.47,-3.07,-3.95,0,*7B
1494666518.82,9422,14.63,73282.8,11.45,-2.67,-3.51,0,*75
1494666520.04,9423,14.63,73282.5,11.43,-3.07,-4.01,0,*77
1494666521.23,9424,14.63,73280.5,11.43,-2.79,-3.75,0,*7C
1494666522.45,9425,14.63,73280.0,11.41,-1.29,-2.23,0,*7B